Wind_Speed
27 25 20 20 21 21 21 18 16 16 14 16 14 12 12 12 13 13 14 15 14 16 19 18 18 15 11 11 12 13 15 18 22 21 17 16 14 10 11 16 14 16 16
23 25 22 23 23 21 19 16 20 21 19 16 17 16 15 18 18 16 17 16 18 20 19 18 15 13 17 19 17 21 20 21 22 25 21 19 18 13 15 18 18 16 17
25 26 26 27 26 24 24 23 20 20 19 18 16 17 17 16 17 18 18 17 17 14 14 16 18 21 21 17 21 25 12 13 13 16 17 14 14 12 15 18 19 20 20
24 30 30 26 24 24 22 22 22 21 21 19 15 9 10 12 13 12 10 12 14 16 16 16 17 19 18 16 16 17 16 16 15 17 18 16 15 14 16 14 16 17 17
13 13 19 18 14 13 12 13 16 19 19 21 25 20 5 9 7 9 12 13 15 18 15 14 14 15 20 20 21 17 21 19 16 18 19 18 16 14 17 15 18 18 19
18 19 21 20 17 9 12 16 12 14 18 19 14 17 17 8 14 14 16 18 19 20 22 21 21 21 19 24 27 26 26 26 27 22 23 23 24 20 17 18 20 19 18
26 16 5 7 12 18 18 15 14 15 14 13 12 9 8 10 14 17 20 21 22 21 22 22 20 15 22 20 22 27 26 26 25 25 29 27 25 20 19 19 20 19 21
16 18 23 19 15 12 10 11 8 4 8 6 7 9 10 11 13 17 18 18 19 20 20 21 22 23 22 25 27 28 25 21 20 20 19 20 19 18 17 18 21 21 23
13 10 9 11 13 13 12 7 4 4 9 8 9 9 10 10 12 13 14 16 17 20 19 22 22 23 24 26 27 30 30 25 19 21 22 25 23 23 23 23 21 23 26
10 9 7 6 4 4 5 5 4 3 6 5 7 8 8 9 12 15 16 18 20 19 20 19 18 23 24 27 29 30 32 24 21 19 19 22 23 23 19 20 18 20 23
8 7 6 4 3 2 2 3 4 6 9 10 11 12 14 16 16 17 19 20 21 22 20 17 15 21 27 27 27 30 33 33 33 30 24 23 21 20 19 18 18 18 18
6 4 2 2 0 4 5 6 6 8 9 10 13 12 8 10 13 13 16 19 20 21 20 18 17 24 25 24 26 27 28 29 30 24 24 23 23 21 20 20 18 17 16
3 2 4 6 8 9 9 9 5 8 5 4 6 7 7 7 8 14 13 13 15 17 16 19 25 27 26 25 21 24 26 23 21 22 23 23 22 22 22 27 25 26 24
4 6 7 6 5 5 2 4 3 4 4 5 6 6 7 7 7 10 8 10 13 14 17 18 24 24 23 22 23 19 18 18 20 22 23 22 22 22 23 23 25 25 26
5 3 1 1 1 3 4 4 4 5 8 7 6 7 8 7 11 14 14 12 13 18 24 24 21 20 21 21 21 21 21 21 21 21 23 24 23 23 24 23 23 24 28
3 1 0 2 3 4 6 6 12 11 9 9 9 9 7 11 11 14 16 17 21 24 27 23 21 20 20 20 21 19 20 21 21 21 22 22 23 24 25 24 23 25 26
4 2 2 2 4 5 6 7 8 10 14 14 13 11 11 9 12 15 18 22 24 26 21 19 19 18 21 23 24 25 24 24 24 23 20 20 21 23 26 26 26 27 27
3 2 1 2 4 5 7 7 8 9 9 9 12 14 13 12 15 20 24 27 22 19 21 21 20 21 22 24 26 27 24 24 22 21 19 21 25 23 24 25 27 28 29
1 2 3 4 5 7 6 8 8 8 9 10 12 14 15 16 21 22 24 24 21 19 21 22 20 20 21 23 24 25 26 24 25 25 24 27 24 25 31 27 25 27 29
5 6 5 6 7 9 9 10 11 11 13 14 15 15 13 16 20 23 20 21 23 21 22 23 24 26 24 27 29 30 27 25 25 26 25 23 24 25 28 28 25 26 26
8 9 11 10 11 12 12 12 11 12 13 14 16 16 16 20 19 18 18 20 23 24 24 24 24 26 28 29 27 25 23 26 26 25 28 29 25 23 24 25 27 28 26
9 12 14 16 16 16 14 11 15 14 14 15 15 16 17 16 16 19 20 18 21 22 22 21 24 24 25 23 21 23 25 27 28 27 28 27 27 26 27 26 22 24 26
15 18 20 21 21 21 21 16 12 14 13 15 14 15 14 15 16 18 20 20 19 18 20 22 22 23 22 20 18 16 17 18 18 18 19 21 25 27 29 30 29 30 27
19 20 20 19 18 18 17 14 13 13 12 12 14 14 13 15 17 19 18 20 18 18 18 18 19 18 18 18 16 15 14 15 18 19 20 22 23 24 24 26 28 29 26
17 16 17 16 15 14 12 11 12 11 10 11 12 12 14 15 16 16 15 17 15 16 17 16 16 16 16 16 15 15 16 17 19 22 23 24 25 26 25 23 24 26 28
16 17 17 14 13 11 9 9 9 9 9 10 12 13 14 15 14 13 15 14 15 16 16 17 16 15 16 15 15 15 16 18 21 21 23 23 24 25 25 26 25 25 26
Wind_Direction
205 207 205 209 217 219 221 223 227 232 243 248 252 252 253 254 252 253 250 247 252 258 266 274 281 286 278 274 265 266 274 275 277 282 279 271 266 283 262 289 291 297 291
198 199 198 204 208 212 214 215 222 229 240 246 251 250 253 259 258 257 255 255 269 273 276 276 275 273 282 286 277 279 276 268 268 273 280 262 274 270 279 280 285 281 278
188 192 198 207 210 211 217 220 222 227 233 236 240 245 251 258 259 261 261 265 267 264 266 273 285 290 291 282 278 286 295 281 278 276 277 273 267 273 275 279 284 287 279
187 197 204 205 205 209 216 220 225 222 223 226 235 246 273 271 272 276 264 266 271 268 267 276 287 292 293 291 292 287 291 280 282 278 278 274 270 268 264 271 275 286 285
174 173 184 187 173 161 166 200 219 233 238 236 233 233 265 291 279 289 285 282 277 279 280 283 294 284 293 293 287 283 282 294 285 279 279 281 282 272 273 281 281 285 280
121 113 126 142 150 150 164 176 186 215 220 225 229 231 217 257 287 289 283 280 280 282 287 287 287 290 295 286 290 286 285 286 287 279 280 280 278 286 289 285 280 281 282
149 140 354 257 262 236 220 231 241 227 227 220 190 183 234 262 291 285 280 284 285 287 290 291 293 292 282 292 289 291 295 295 291 290 288 289 283 290 288 285 285 276 275
165 172 197 238 261 241 229 217 197 209 223 219 262 259 264 282 275 287 281 281 285 283 283 288 288 289 291 291 293 293 296 298 295 290 288 288 284 281 274 278 276 278 279
173 208 223 223 237 240 237 237 236 219 261 270 277 252 255 261 270 261 273 282 285 286 289 286 287 288 289 290 290 293 294 298 303 301 294 292 280 274 277 279 274 277 278
140 162 163 153 159 145 163 188 217 242 268 282 280 279 284 283 284 285 290 293 292 294 293 295 300 303 293 287 289 290 291 298 300 293 287 286 295 292 286 286 281 277 273
148 160 166 168 208 205 221 239 260 271 274 278 283 286 288 286 284 286 287 285 285 287 291 292 292 284 281 288 289 286 285 286 285 288 290 287 282 277 277 279 276 281 276
152 157 175 214 258 315 314 301 289 278 282 281 284 289 286 288 292 285 285 286 286 284 286 292 288 280 286 287 285 288 289 283 280 282 282 278 276 275 272 271 265 270 279
167 236 291 308 311 312 310 306 325 311 302 300 288 290 289 299 308 312 317 304 297 293 291 283 280 289 292 293 297 286 286 289 283 279 278 277 276 277 272 274 276 280 284
236 282 295 302 316 320 327 330 344 329 321 305 293 297 306 312 312 277 300 326 321 321 302 300 294 295 297 297 298 292 286 279 274 273 272 273 276 275 277 276 273 273 273
243 239 236 290 307 325 335 335 357 331 311 293 289 295 305 300 294 298 312 311 306 299 303 306 301 295 289 285 284 283 280 277 277 277 276 275 275 274 274 274 274 275 268
160 134 320 352 344 332 339 340 329 339 342 332 325 318 304 287 298 310 304 304 306 308 311 306 299 293 290 289 287 284 280 279 282 278 274 274 275 274 274 273 272 270 271
163 148 347 24 333 334 334 329 325 327 340 346 343 330 319 307 300 305 310 310 311 312 313 306 299 290 282 279 281 279 281 278 273 274 273 275 271 271 273 269 266 266 266
170 169 135 312 318 324 320 320 323 321 323 325 324 323 322 321 315 318 322 319 322 310 312 305 299 291 294 292 289 286 286 288 284 282 283 283 273 272 271 265 265 266 268
159 277 303 301 306 310 317 314 308 301 303 305 306 310 303 311 319 322 319 307 303 297 296 296 291 291 293 289 290 291 290 276 276 280 286 279 275 274 267 267 270 266 267
291 288 276 286 302 306 305 304 299 289 286 295 298 298 301 308 310 306 306 304 301 292 288 295 294 292 296 291 285 289 287 279 275 273 278 281 273 271 271 267 266 266 263
283 286 281 281 288 293 299 292 287 292 287 295 297 296 290 302 306 297 297 288 292 290 288 293 292 293 296 295 286 279 281 279 276 275 277 276 281 284 275 275 271 265 270
291 293 292 284 282 283 279 290 294 289 290 295 301 304 308 314 307 310 304 298 292 291 290 297 302 303 302 302 286 276 275 277 278 276 275 277 276 277 276 274 271 269 272
301 297 293 290 284 281 278 269 283 294 295 304 307 308 304 306 311 314 313 307 306 299 294 299 303 309 305 303 302 298 293 292 292 291 289 284 281 282 279 272 269 270 270
307 300 296 292 289 283 275 275 278 281 291 299 306 308 308 311 315 315 311 316 306 306 308 310 311 312 316 313 309 307 305 304 303 303 302 299 296 292 288 278 273 267 266
310 306 302 297 294 286 275 272 274 282 294 306 311 310 315 317 320 318 314 329 326 325 323 320 317 313 311 310 315 316 313 312 310 306 301 298 294 292 294 286 278 273 270
313 314 311 299 298 286 280 291 286 296 298 310 313 316 319 318 312 323 328 332 336 341 341 339 337 336 331 328 327 326 325 323 317 315 312 308 305 300 295 291 288 282 274
Height
1513 1518 1523 1526 1529 1532 1536 1539 1542 1545 1548 1549 1551 1551 1551 1551 1552 1552 1551 1551 1552 1552 1552 1551 1550 1550 1551 1553 1553 1551 1552 1551 1548 1547 1547 1545 1539 1537 1541 1538 1537 1537 1535
1509 1513 1516 1519 1523 1526 1530 1534 1536 1538 1542 1545 1547 1547 1548 1547 1546 1547 1549 1548 1548 1548 1547 1546 1546 1546 1545 1545 1545 1544 1545 1546 1545 1540 1538 1538 1534 1532 1532 1532 1531 1531 1530
1503 1506 1508 1511 1515 1519 1523 1526 1529 1533 1536 1539 1542 1545 1544 1544 1543 1544 1544 1544 1543 1543 1544 1543 1542 1541 1541 1540 1539 1538 1539 1539 1538 1535 1533 1533 1534 1529 1528 1526 1525 1523 1523
1501 1500 1503 1506 1509 1512 1517 1520 1524 1526 1529 1532 1535 1539 1542 1541 1540 1540 1541 1540 1540 1540 1538 1538 1537 1536 1535 1534 1534 1534 1534 1533 1534 1531 1530 1528 1527 1525 1523 1524 1523 1520 1519
1507 1509 1506 1509 1512 1513 1514 1516 1519 1520 1521 1524 1525 1525 1535 1539 1538 1537 1537 1537 1536 1537 1535 1532 1532 1531 1531 1530 1529 1531 1529 1528 1529 1528 1527 1525 1523 1522 1518 1517 1516 1515 1515
1503 1512 1515 1515 1513 1511 1509 1508 1512 1519 1519 1517 1520 1520 1521 1532 1532 1531 1532 1531 1531 1530 1529 1527 1526 1526 1526 1524 1523 1523 1523 1521 1520 1520 1521 1520 1516 1515 1513 1510 1508 1507 1505
1501 1495 1514 1516 1515 1511 1507 1505 1501 1508 1519 1516 1516 1520 1524 1523 1525 1527 1527 1527 1525 1523 1524 1522 1521 1522 1520 1518 1518 1517 1515 1513 1513 1512 1509 1508 1507 1508 1508 1506 1505 1503 1501
1502 1502 1508 1512 1518 1517 1510 1505 1504 1510 1517 1512 1515 1517 1519 1518 1520 1519 1523 1522 1522 1519 1518 1518 1517 1517 1515 1513 1512 1512 1510 1507 1507 1507 1505 1502 1504 1503 1501 1501 1499 1496 1494
1509 1512 1512 1515 1516 1515 1512 1508 1505 1504 1514 1512 1511 1516 1516 1514 1516 1518 1518 1517 1516 1515 1513 1513 1512 1511 1509 1509 1507 1506 1502 1500 1503 1500 1497 1497 1494 1495 1493 1491 1490 1490 1488
1511 1514 1515 1515 1517 1513 1510 1507 1507 1505 1509 1510 1511 1513 1511 1509 1510 1511 1509 1511 1512 1511 1509 1510 1507 1505 1502 1501 1500 1499 1495 1494 1496 1493 1493 1490 1489 1488 1488 1485 1485 1482 1482
1511 1513 1514 1513 1513 1511 1508 1506 1505 1507 1509 1509 1509 1508 1509 1509 1507 1507 1507 1507 1507 1506 1505 1505 1504 1501 1497 1496 1494 1492 1490 1489 1485 1484 1486 1486 1485 1485 1484 1481 1479 1475 1473
1512 1512 1512 1511 1510 1507 1506 1506 1505 1507 1507 1505 1505 1506 1508 1504 1502 1503 1502 1502 1501 1501 1500 1501 1498 1495 1492 1490 1489 1488 1484 1481 1479 1479 1479 1477 1479 1477 1477 1477 1473 1471 1468
1512 1511 1511 1509 1507 1505 1505 1505 1505 1505 1506 1504 1506 1507 1506 1504 1503 1500 1499 1499 1498 1496 1495 1495 1492 1488 1486 1483 1482 1481 1478 1476 1475 1474 1472 1472 1471 1470 1468 1467 1467 1465 1460
1512 1511 1510 1509 1507 1507 1509 1507 1505 1505 1504 1505 1506 1504 1502 1501 1500 1496 1496 1497 1496 1494 1492 1489 1486 1484 1481 1479 1477 1474 1473 1473 1471 1469 1467 1466 1465 1462 1463 1460 1460 1458 1458
1511 1510 1510 1510 1509 1509 1506 1504 1502 1502 1500 1501 1500 1499 1498 1498 1495 1494 1494 1494 1493 1492 1487 1483 1482 1479 1476 1475 1472 1470 1469 1467 1464 1462 1461 1459 1457 1456 1455 1455 1451 1450 1450
1510 1510 1509 1509 1508 1507 1505 1504 1501 1500 1497 1495 1494 1493 1493 1492 1492 1493 1492 1489 1488 1484 1480 1477 1474 1473 1471 1468 1467 1463 1463 1461 1459 1456 1455 1452 1451 1450 1449 1447 1445 1445 1443
1510 1510 1508 1508 1508 1506 1504 1503 1502 1500 1496 1494 1493 1491 1491 1491 1490 1489 1487 1484 1482 1478 1474 1473 1470 1467 1465 1461 1461 1458 1457 1455 1451 1450 1448 1445 1444 1444 1442 1441 1441 1440 1438
1509 1507 1508 1508 1508 1506 1504 1502 1500 1498 1496 1495 1493 1491 1489 1489 1487 1484 1481 1477 1475 1472 1469 1467 1465 1463 1462 1459 1455 1451 1448 1447 1447 1444 1440 1438 1437 1437 1436 1437 1435 1433 1432
1508 1508 1507 1507 1505 1504 1501 1500 1498 1497 1496 1494 1493 1490 1486 1485 1483 1480 1478 1475 1472 1470 1468 1465 1461 1458 1455 1452 1449 1445 1441 1438 1438 1437 1435 1433 1432 1430 1429 1430 1428 1427 1425
1505 1505 1504 1503 1502 1500 1498 1496 1495 1493 1493 1491 1489 1488 1486 1482 1480 1477 1474 1471 1467 1463 1461 1457 1454 1450 1447 1444 1442 1438 1435 1432 1430 1429 1429 1427 1425 1424 1423 1421 1421 1419 1417
1503 1502 1501 1500 1498 1496 1494 1493 1491 1490 1489 1487 1485 1483 1481 1479 1475 1470 1468 1466 1463 1457 1455 1452 1448 1445 1441 1437 1433 1430 1427 1425 1424 1424 1423 1421 1418 1416 1415 1414 1411 1411 1409
1500 1498 1496 1494 1493 1491 1489 1488 1487 1485 1484 1481 1480 1477 1474 1473 1470 1467 1463 1458 1454 1450 1448 1445 1441 1438 1434 1429 1425 1422 1420 1418 1417 1416 1414 1413 1411 1409 1408 1406 1404 1403 1401
1496 1493 1491 1488 1486 1485 1483 1481 1481 1481 1479 1477 1475 1473 1471 1469 1466 1463 1458 1452 1447 1444 1441 1438 1434 1430 1425 1422 1418 1415 1412 1411 1409 1407 1405 1404 1402 1401 1400 1397 1396 1395 1394
1490 1487 1484 1482 1480 1479 1477 1477 1477 1475 1474 1473 1472 1470 1468 1465 1462 1458 1452 1447 1442 1439 1435 1431 1427 1424 1420 1416 1413 1411 1408 1406 1404 1402 1399 1397 1395 1393 1390 1388 1387 1386 1386
1484 1482 1480 1477 1476 1474 1474 1473 1472 1471 1469 1469 1468 1466 1464 1461 1457 1453 1448 1442 1438 1434 1430 1426 1422 1418 1415 1412 1409 1406 1404 1402 1399 1396 1393 1390 1388 1385 1383 1380 1378 1377 1377
1480 1477 1474 1472 1471 1470 1470 1469 1469 1467 1466 1465 1464 1462 1459 1456 1453 1447 1443 1438 1434 1431 1427 1422 1418 1415 1412 1409 1406 1403 1401 1398 1394 1391 1387 1384 1380 1377 1374 1372 1370 1368 1367